Regional Weather Roundup
Issued by NWS Kansas City/Pleasant Hill, MO

Home | Current Version | Previous Version | Text Only | Print | Product List | Glossary On
Versions: 1 2 3 4 5 6 7 8 9 10 11 12 13 14 15 16 17 18 19 20 21 22 23 24 25 26 27 28 29 30 31 32 33 34 35 36 37 38 39 40 41 42 43 44 45 46 47 48 49 50
000
ASUS43 KEAX 110304
RWREAX

WEATHER ROUNDUP FOR EASTERN KANSAS AND NORTHWEST MISSOURI
NATIONAL WEATHER SERVICE KANSAS CITY/PLEASANT HILL MO
1000 PM CDT THU JUL 10 2014

KSZ040-057-103>105-MOZ028-029-037-043-110400-
...KANSAS CITY METROPOLITAN AREA...

CITY           SKY/WX    TMP DP  RH WIND       PRES   REMARKS
K.C. INTL      PTCLDY    74  66  76 SE8       30.05R
K.C. DOWNTOWN  CLEAR     79  66  64 SE8       30.04R
LEES SUMMIT    CLEAR     74  66  76 SE5       30.07R
OLATHE - IXD   CLEAR     73  65  75 SE8       30.06R
OLATHE - OJC   CLEAR     73  65  75 SE6       30.05R
LAWRENCE       CLEAR     75  66  73 SE9       30.03R

$$

MOZ001>008-011>017-020>025-030>033-038>040-044>046-053-054-110400-
...NORTHERN AND CENTRAL MISSOURI...

CITY           SKY/WX    TMP DP  RH WIND       PRES   REMARKS
ST. JOSEPH     CLEAR     76  66  71 SE10      30.05R
MOSBY          CLEAR     73  66  78 SE3       30.05S
WHITEMAN AFB   CLEAR     71  61  70 SE5       30.08R
CLINTON        CLEAR     73  66  78 CALM      30.08R
SEDALIA        CLEAR     72  66  81 E5        30.10R
WARSAW         NOT AVBL
MARSHALL         N/A     73  66  78 E7        30.10R
CHILLICOTHE      N/A     73  62  68 SE5       30.09R
KIRKSVILLE     PTCLDY    68  61  78 SE6       30.12R

$$

MOZ041-047>049-056>058-063>065-088>090-097-110400-
...EASTERN AND SOUTHERN MISSOURI...

CITY           SKY/WX    TMP DP  RH WIND       PRES   REMARKS
ST. LOUIS INTL PTCLDY    74  57  55 E8        30.13R
SPIRIT OF STL  CLEAR     67  61  81 CALM      30.11R
COLUMBIA       CLEAR     70  61  73 E6        30.11R
JEFFERSON CITY CLEAR     70  63  78 SE5       30.10R
HANNIBAL       CLEAR     70  54  56 E3        30.13R
ROLLA          CLEAR     68  62  81 E7        30.11R
LEBANON        CLEAR     70  63  78 CALM      30.12R
OSAGE BEACH      N/A     72  64  78 E3        30.10R VSB 1/2
SPRINGFIELD    CLEAR     69  64  84 SE5       30.09R
BRANSON        CLOUDY    72  68  88 SE6       30.12R
NEVADA         CLEAR     70  68  94 E6        30.07R
JOPLIN         CLEAR     70  67  90 S6        30.07R
WEST PLAINS    CLEAR     71  66  84 CALM      30.13R
PIEDMONT       PTCLDY    70  68  94 CALM      30.11R
MALDEN         CLOUDY    77  68  73 NE3       30.11R

$$

IAZ060-094-KSZ022-034>040-054-083-096-NEZ052-066-093-110400-
...KANSAS...SOUTHEAST NEBRASKA AND IOWA...

CITY           SKY/WX    TMP DP  RH WIND       PRES   REMARKS
TOPEKA         CLEAR     77  66  68 SE9       30.03R
MANHATTAN      CLEAR     75  64  68 E3        29.99R
EMPORIA        CLEAR     73  65  75 SE10      30.01S
CHANUTE        CLEAR     72  66  81 SE7       30.03S
WICHITA        PTCLDY    74  66  76 SE14      29.99R
OMAHA          PTCLDY    77  64  64 SE18      29.98S
LINCOLN        CLEAR     79  63  57 SE15      29.99R
FALLS CITY     CLEAR     74  67  78 SE9       30.01R
LAMONI         PTCLDY    71  59  65 SE8       30.09R
DES MOINES     MOCLDY    73  59  61 SE12      30.06S

$$



USA.gov is the U.S. government's official web portal to all federal, state and local government web resources and services.